sat.trackr.live / text

‹ back to catalog

STARLINK-35290

NORAD 65846 · 2025-221Z

PAYLOAD ACTIVE UNKNOWN

§ Identity

Operator
Country
US
Launch date
2025-09-29
Launch site
AFWTR
Launch vehicle
Mass (kg)
RCS (m²)

Purposes: comms

External: N2YO · Heavens-Above · Gunter

§ Orbital elements

Epoch: 2026-09-20T23:14:59.093664Z

Period
93.85 min
Inclination
53.1578°
Eccentricity
0.0001341
Mean motion
15.34405107 rev/d
Perigee alt
461.8 km
Apogee alt
463.6 km
Semi-major
6,840.8 km
B*
6.0506e-4
RAAN
257.5921°
Arg perigee
86.9254°
Mean anomaly
273.1902°
Rev number
5,468

§ Raw data

STARLINK-352901 65846U 25221Z   26263.96873951  .00020125  00000+0  60506-3 0  99972 65846  53.1578 257.5921 0001341  86.9254 273.1902 15.34405107 54681

JSON: /api/v1/satellites/65846 · /tle

For live sub-satellite position, see the globe view (requires WebGL).

§ Visibility from observer

Set your observer location to see the next 7 days of passes ≥ 10°. The values pass through the URL so the page stays shareable.

No JS? Fill the form by hand. The geolocation button needs JavaScript.